Tracking 19831 objects as of 24-Aug-2019
HD Live streaming from Space Station
objects crossing your sky now

TITAN 3C TRANSTAGE DEB

Track TITAN 3C TRANSTAGE DEB now!
10-day predictions


NORAD ID: 26049
Int'l Code: 1965-108AH
Perigee: 528.7 km
Apogee: 13,534.7 km
Inclination: 27.2 °
Period: 257.4 minutes
Semi major axis: 13402 km
RCS: 0.0672 m2 (small)
Launch date: December 21, 1965
Source: United States (US)
Launch site: AIR FORCE EASTERN TEST RANGE (AFETR)

Note: This is SATELLITE DEBRIS
aabbcc
Your satellite tracking list
Your tracking list is empty




NASA's NSSDC Master Catalog

Two Line Element Set (TLE):
1 26049U 65108AH  19234.17298635 +.00000306 +00000-0 +55243-3 0  9992
2 26049 027.1533 191.6645 4852030 124.3787 291.4044 05.59519576403609
Source of the keplerian elements: AFSPC